This demonstration page uses our WeatherBlox Daily Observations layout. Learn more.

Left ArrowRight Arrow

41.12389, -100.76542

Hourly Observations for January 6, 2018

Temp ( °F °C ) Dew Point ( °F °C ) Humidity (%) Winds ( mph kmh ) Pressure ( in mb ) Visibility ( mi km ) Precip ( " mm )
12:53 am 00:53 Cloudy with Haze 14 -10 9 -12.8 80 80 ESE 3 6 30.43 1030 4 6 0.00 0.00
1:53 am 01:53 Cloudy with Haze 14 -10 9 -12.8 80 80 SSE 5 7 30.40 1030 6 10 0.00 0.00
2:53 am 02:53 Mostly Clear 12 -11.1 6 -14.4 77 77 S 5 7 30.42 1030 10 16 0.00 0.00
3:53 am 03:53 Clear 10 -12.2 5 -15 80 80 E 3 6 30.39 1029 8 13 0.00 0.00
4:53 am 04:53 Clear 9 -12.8 4 -15.6 80 80 Calm 30.38 1029 9 14 0.00 0.00
5:53 am 05:53 Clear 7 -13.9 3 -16.1 84 84 ESE 3 6 30.37 1029 8 13 0.00 0.00
6:53 am 06:53 Clear 7 -13.9 4 -15.6 87 87 SSE 5 7 30.39 1029 8 13 0.00 0.00
7:53 am 07:53 Clear 6 -14.4 2 -16.7 83 83 ESE 3 6 30.37 1028 8 13 0.00 0.00
8:53 am 08:53 Hazy 8 -13.3 3 -16.1 80 80 E 5 7 30.35 1028 6 10 0.00 0.00
9:53 am 09:53 Sunny 12 -11.1 6 -14.4 77 77 SSE 7 11 30.35 1028 7 11 0.00 0.00
10:53 am 10:53 Sunny 15 -9.4 8 -13.3 74 74 S 10 17 30.32 1027 10 16 0.00 0.00
11:53 am 11:53 Sunny 16 -8.9 9 -12.8 74 74 S 12 19 30.28 1026 8 13 0.00 0.00
12:53 pm 12:53 Sunny 19 -7.2 12 -11.1 74 74 S 9 15 30.22 1023 9 14 0.00 0.00
1:53 pm 13:53 Sunny 21 -6.1 14 -10 74 74 S 10 17 30.17 1022 9 14 0.00 0.00
2:53 pm 14:53 Sunny 24 -4.4 16 -8.9 71 71 SSW 9 15 30.14 1021 9 14 0.00 0.00
3:53 pm 15:53 Sunny 25 -3.9 17 -8.3 72 72 S 7 11 30.13 1020 10 16 0.00 0.00
4:53 pm 16:53 Sunny 26 -3.3 17 -8.3 69 69 S 6 9 30.10 1019 10 16 0.00 0.00
5:53 pm 17:53 Clear 24 -4.4 17 -8.3 75 75 Calm 30.09 1019 10 16 0.00 0.00
6:53 pm 18:53 Clear 22 -5.6 15 -9.4 75 75 ESE 3 6 30.08 1019 8 13 0.00 0.00
7:53 pm 19:53 Clear 22 -5.6 16 -8.9 78 78 E 6 9 30.06 1018 9 14 0.00 0.00
8:53 pm 20:53 Clear 24 -4.4 17 -8.3 75 75 ESE 3 6 30.04 1017 10 16 0.00 0.00
9:53 pm 21:53 Clear 24 -4.4 16 -8.9 71 71 E 6 9 30.01 1016 10 16 0.00 0.00
10:53 pm 22:53 Clear 25 -3.9 16 -8.9 69 69 ENE 3 6 29.99 1016 10 16 0.00 0.00
11:53 pm 23:53 Clear 22 -5.6 15 -9.4 75 75 Calm 29.98 1015 10 16 0.00 0.00

Powered by AerisWeather